This demonstration page uses our WeatherBlox Daily Observations layout. Learn more.

40.92945, -100.16068

Hourly Observations for March 21, 2018

Temp ( °F °C ) Dew Point ( °F °C ) Humidity (%) Winds ( mph kmh ) Pressure ( in mb ) Visibility ( mi km ) Precip ( " mm )
12:15 am 00:15 Clear 31 -0.8 29 -1.7 94 94 W 7 11 30.15 1021 10 16.0934 0 0
12:35 am 00:35 Clear 30 -1 29 -1.9 94 94 WNW 6 9 30.15 1021 10 16.0934 0 0
12:55 am 00:55 Clear 30 -1 29 -1.9 94 94 WNW 6 9 30.15 1021 10 16.0934 0 0
1:15 am 01:15 Clear 30 -1 28 -2 93 93 WNW 7 11 30.15 1021 10 16.0934 0 0
1:35 am 01:35 Clear 29 -1.4 28 -2.2 94 94 WNW 7 11 30.15 1021 10 16.0934 0 0
1:55 am 01:55 Clear 30 -1.1 28 -2 94 94 WNW 5 7 30.15 1021 10 16.0934 0 0
2:15 am 02:15 Clear 29 -1.7 27 -2.6 94 94 WNW 3 6 30.15 1021 10 16.0934 0 0
2:35 am 02:35 Clear 28 -2 27 -3 93 93 WNW 5 7 30.18 1022 10 16.0934 0 0
2:55 am 02:55 Clear 28 -2 27 -3 93 93 WNW 7 11 30.18 1022 10 16.0934 0 0
3:15 am 03:15 Clear 29 -1.7 27 -2.6 94 94 W 5 7 30.15 1021 10 16.0934 0 0
3:35 am 03:35 Clear 28 -2 27 -2.8 94 94 W 5 7 30.18 1022 10 16.0934 0 0
3:55 am 03:55 Clear 28 -2.2 26 -3.1 94 94 WNW 7 11 30.18 1022 10 16.0934 0 0
4:15 am 04:15 Clear 28 -2.3 26 -3.3 93 93 WNW 6 9 30.18 1022 10 16.0934 0 0
4:35 am 04:35 Clear 28 -2 27 -3 93 93 NW 3 6 30.18 1022 10 16.0934 0 0
4:55 am 04:55 Clear 28 -2.5 26 -3.5 93 93 NNW 5 7 30.18 1022 10 16.0934 0 0
5:15 am 05:15 Clear 28 -2.4 26 -3.4 93 93 NNW 7 11 30.18 1022 10 16.0934 0 0
5:35 am 05:35 Clear 27 -2.9 25 -4.1 92 92 NW 7 11 30.18 1022 10 16.0934 0 0
5:55 am 05:55 Clear 27 -3 24 -4.3 91 91 NW 6 9 30.18 1022 10 16.0934 0 0
6:15 am 06:15 Clear 26 -3.4 24 -4.7 91 91 WNW 5 7 30.21 1023 10 16.0934 0 0
6:35 am 06:35 Clear 26 -3.5 23 -5 89 89 WNW 6 9 30.21 1023 10 16.0934 0 0
6:55 am 06:55 Clear 26 -3.5 23 -4.9 90 90 W 6 9 30.21 1023 10 16.0934 0 0
7:15 am 07:15 Clear 26 -3.5 23 -4.9 90 90 WNW 5 7 30.21 1023 10 16.0934 0 0
7:35 am 07:35 Clear 26 -3.2 24 -4.6 90 90 WNW 5 7 30.24 1024 10 16.0934 0 0
7:55 am 07:55 Sunny 26 -3.2 24 -4.6 90 90 W 3 6 30.24 1024 10 16.0934 0 0
8:15 am 08:15 Sunny 26 -3.1 24 -4.3 92 92 WSW 3 6 30.24 1024 10 16.0934 0 0
8:35 am 08:35 Sunny 28 -2 26 -3.1 92 92 Calm 30.24 1024 10 16.0934 0 0
8:55 am 08:55 Sunny 30 -1 28 -2.1 92 92 WSW 3 6 30.21 1023 10 16.0934 0 0
9:15 am 09:15 Sunny 32 0 30 -1.2 92 92 Calm 30.21 1023 10 16.0934 0 0
9:35 am 09:35 Sunny 33 0.8 31 -0.4 92 92 Calm 30.21 1023 10 16.0934 0 0
9:55 am 09:55 Sunny 36 2.1 33 0.4 89 89 Calm 30.18 1022 10 16.0934 0 0
10:15 am 10:15 Sunny 37 3 34 1 87 87 Calm 30.18 1022 10 16.0934 0 0
10:35 am 10:35 Sunny 41 4.9 35 1.5 79 79 S 3 6 30.15 1021 10 16.0934 0 0
10:55 am 10:55 Sunny 43 6.1 38 3.2 82 82 S 5 7 30.15 1021 10 16.0934 0 0
11:15 am 11:15 Sunny 46 7.9 36 2.3 68 68 S 6 9 30.12 1020 10 16.0934 0 0
11:35 am 11:35 Sunny 48 9.1 37 2.6 64 64 SSW 10 17 30.12 1020 10 16.0934 0 0
11:55 am 11:55 Sunny 49 9.6 35 1.9 59 59 S 13 20 30.12 1020 10 16.0934 0 0
12:15 pm 12:15 Sunny 51 10.3 36 2 57 57 S 14 22 30.09 1019 10 16.0934 0 0
12:35 pm 12:35 Sunny 52 11 36 2 54 54 S 13 20 30.06 1018 10 16.0934 0 0
12:55 pm 12:55 Sunny 53 11.6 37 2.5 54 54 S 16 26 30.06 1018 10 16.0934 0 0
1:15 pm 13:15 Sunny 55 12.6 37 3 52 52 S 20 31 30.03 1017 10 16.0934 0 0
1:35 pm 13:35 Sunny 57 13.7 37 2.5 47 47 S 18 30 30 1016 10 16.0934 0 0
1:55 pm 13:55 Sunny 58 14.4 37 2.5 45 45 S 15 24 30 1016 10 16.0934 0 0
2:15 pm 14:15 Sunny 59 15.2 36 2 41 41 S 15 24 30 1016 10 16.0934 0 0
2:35 pm 14:35 Partly Cloudy 60 15.8 35 1.5 38 38 S 15 24 30 1016 10 16.0934 0 0
2:55 pm 14:55 Partly Cloudy 59 15.2 33 0.8 38 38 S 13 20 30 1016 10 16.0934 0 0
3:15 pm 15:15 Mostly Cloudy 61 16.1 32 0.2 34 34 SW 14 22 30 1016 10 16.0934 0 0
3:35 pm 15:35 Mostly Cloudy 62 16.7 29 -1.8 28 28 WSW 13 20 30 1016 10 16.0934 0 0
3:55 pm 15:55 Mostly Cloudy 63 17.4 27 -2.9 25 25 W 10 17 29.97 1015 10 16.0934 0 0
4:15 pm 16:15 Cloudy 64 17.6 26 -3.3 24 24 W 15 24 29.97 1015 10 16.0934 0 0
4:35 pm 16:35 Mostly Cloudy 62 16.7 26 -3.3 25 25 SW 12 19 30 1016 10 16.0934 0 0
4:55 pm 16:55 Cloudy 62 16.7 26 -3.2 26 26 SSW 10 17 30 1016 10 16.0934 0 0
5:15 pm 17:15 Mostly Cloudy 62 16.9 27 -2.6 26 26 SW 8 13 29.94 1014 10 16.0934 0 0
5:35 pm 17:35 Cloudy 63 17 28 -2.3 27 27 SSW 8 13 29.94 1014 10 16.0934 0 0
5:55 pm 17:55 Mostly Cloudy 62 16.9 29 -1.7 28 28 S 10 17 29.94 1014 10 16.0934 0 0
6:15 pm 18:15 Mostly Cloudy 61 16.3 29 -1.5 30 30 S 8 13 29.97 1015 10 16.0934 0 0
6:35 pm 18:35 Cloudy 61 16.3 30 -0.9 31 31 S 10 17 29.97 1015 10 16.0934 0 0
6:55 pm 18:55 Cloudy 61 16 33 0.4 35 35 S 7 11 29.97 1015 10 16.0934 0 0
7:15 pm 19:15 Cloudy 60 15.5 33 0.4 36 36 S 9 15 29.97 1015 10 16.0934 0 0
7:35 pm 19:35 Mostly Cloudy 56 13.3 34 1.2 44 44 S 8 13 29.97 1015 10 16.0934 0 0
7:55 pm 19:55 Partly Cloudy 53 11.8 34 1 48 48 SSE 8 13 30 1016 10 16.0934 0 0
8:15 pm 20:15 Cloudy 53 11.8 34 0.9 47 47 SSE 7 11 30 1016 10 16.0934 0 0
8:35 pm 20:35 Mostly Cloudy 50 10.2 35 1.5 55 55 SSE 8 13 30 1016 10 16.0934 0 0
8:55 pm 20:55 Mostly Cloudy 48 9.1 35 1.6 60 60 SSE 8 13 30.06 1018 10 16.0934 0 0
9:15 pm 21:15 Partly Cloudy 47 8.3 34 1.1 61 61 SSE 8 13 30.06 1018 10 16.0934 0 0
9:35 pm 21:35 Partly Cloudy 49 9.3 33 0.7 55 55 SSE 10 17 30.06 1018 10 16.0934 0 0
9:55 pm 21:55 Partly Cloudy 47 8.5 33 0.7 58 58 SSE 10 17 30.06 1018 10 16.0934 0 0
10:15 pm 22:15 Partly Cloudy 46 7.7 34 1 63 63 SSE 10 17 30.06 1018 10 16.0934 0 0
10:35 pm 22:35 Clear 46 7.8 33 0.5 60 60 SSE 12 19 30.06 1018 10 16.0934 0 0
10:55 pm 22:55 Clear 47 8.5 32 0.2 56 56 SSE 10 17 30.06 1018 10 16.0934 0 0
11:15 pm 23:15 Clear 46 7.8 33 0.5 60 60 SSE 10 17 30.06 1018 10 16.0934 0 0
11:35 pm 23:35 Clear 47 8.5 33 0.4 57 57 S 10 17 30.06 1018 10 16.0934 0 0
11:55 pm 23:55 Partly Cloudy 47 8.5 33 0.5 57 57 S 16 26 30.06 1018 10 16.0934 0 0

Powered by AerisWeather